SCP
0 0 0 0 0 0 -0 -0 0 -0 -0 -0 0 0 0 0 0 -0 -0 -0 0 0 0 0 0 0 0 0 0 0 -0 -0 -0 -0 -0 -0 -0 -0 -0 -0 -0 -0 -0 -0 -0 -0 -0 -0 -0
0 0 0 0 0 -0 -0 -0 -0 -0 -0 -0 -0 0 0 0 0 -0 0 -0 -0 0 0 0 0 0 0 0 0 0 0 -0 -0 -0 -0 -0 -0 -0 -0 -0 -0 -0 -0 -0 -0 -0 -0 -0 -0
0 0 0 0 0 -0 -0 -0 -0 0 -0 0 -0 0 0 0 -0 0 -0 0 -0 0 0 0 0 -0 0 0 0 0 0 0 -0 -0 -0 -0 -0 -0 -0 -0 -0 -0 -0 -0 -0 -0 -0 -0 -0
0 0 0 0 0 0 0 0 0 -0 0 0 0 0 0 0 0 -0 -0 -0 -0 0 -0 -0 0 -0 -0 -0 0 0 0 -0 -0 -0 -0 -0 -0 -0 -0 -0 -0 -0 -0 -0 -0 -0 -0 -0 -0
0 0 0 0 0 0 0 0 -0 0 0 -0 0 -0 -0 -0 -0 -0 -0 -0 -0 -0 -0 -0 0 -0 -0 -0 -0 -0 -0 -0 -0 -0 -0 -0 -0 -0 -0 -0 -0 -0 -0 -0 -0 -0 -0 -0 -0
0 0 0 -0 0 0 0 0 0 0 0 0 0 -0 -0 0 -0 -0 -0 -0 -0 -0 -0 -0 0 -0 -0 -0 -0 -0 -0 -0 -0 -0 -0 -0 -0 -0 -0 -0 -0 -0 -0 -0 -0 -0 -0 -0 -0
0 0 0 0 0 0 0 0 0 0 0 0 0 -0 0 0 -0 -0 -0 -0 -0 -0 -0 -0 -0 -0 -0 -0 -0 -0 -0 -0 -0 -0 -0 -0 -0 -0 -0 -0 -0 -0 -0 -0 -0 -0 -0 -0 -0
0 0 0 0 0 0 0 0 0 0 0 0 0 -0 -0 -0 -0 -0 -0 -0 -0 -0 -0 -0 -0 -0 -0 -0 -0 -0 -0 -0 -0 -0 -0 -0 -0 -0 -0 -0 -0 -0 -0 -0 -0 -0 -0 -0 0
0 0 0 0 0 0 0 0 0 0 0 0 0 0 0 -0 -0 -0 -0 -0 -0 -0 -0 -0 -0 -0 -0 -0 -0 -0 -0 -0 -0 -0 -0 -0 -0 -0 -0 -0 -0 -0 -0 -0 -0 -0 0 0 0
0 0 0 0 0 0 0 0 0 0 0 0 0 0 0 -0 -0 -0 -0 -0 -0 -0 -0 -0 -0 -0 -0 0 -0 -0 -0 -0 -0 -0 -0 0 0 0 0 0 0 0 0 0 0 0 0 0 0
0 0 0 0 0 0 0 0 0 0 0 0 -0 -0 -0 -0 -0 -0 -0 -0 -0 -0 -0 -0 -0 -0 -0 -0 0 0 0 -0 -0 -0 -0 0 0 0 0 0 0 0 0 0 0 0 0 0 0
0 0 0 0 0 0 0 0 0 0 0 0 -0 0 -0 -0 -0 -0 -0 -0 -0 -0 -0 -0 -0 -0 -0 0 0 -0 0 -0 -0 -0 -0 0 0 0 0 0 0 0 0 0 0 0 0 0 0
0 0 0 0 0 0 0 0 0 0 0 0 0 0 -0 -0 -0 -0 0 -0 -0 -0 -0 -0 -0 -0 -0 -0 -0 -0 -0 -0 -0 -0 -0 0 0 0 0 0 0 0 0 0 0 0 0 0 0
0 0 0 0 0 0 0 0 0 0 0 0 0 0 0 -0 -0 0 0 -0 -0 -0 -0 -0 -0 -0 -0 -0 -0 -0 0 -0 -0 -0 -0 -0 0 0 0 0 0 0 0 0 0 0 0 0 0
0 0 0 0 0 0 0 0 0 0 0 0 0 0 0 0 0 0 0 0 0 0 -0 -0 -0 -0 -0 -0 -0 -0 0 0 0 0 -0 -0 0 0 0 0 0 0 0 0 0 0 0 0 0
0 0 0 0 0 0 0 0 0 0 0 0 0 0 0 0 0 -0 0 0 0 0 0 -0 0 -0 -0 -0 -0 0 0 0 0 0 0 -0 0 0 0 0 0 0 0 0 0 0 0 0 0
0 0 0 0 0 0 0 0 0 0 0 0 0 0 0 0 0 0 0 0 0 0 0 0 -0 -0 -0 0 0 0 0 0 0 0 0 0 0 0 0 0 0 0 0 0 0 0 0 0 0
0 0 0 0 0 0 0 0 0 0 0 0 0 0 0 0 0 0 0 0 0 0 0 0 0 0 0 0 0 0 0 0 0 0 0 0 0 0 0 0 0 0 0 0 0 0 0 0 0
0 0 0 0 0 0 0 0 0 0 0 0 0 0 0 0 0 0 0 0 0 0 0 0 0 0 0 0 0 0 0 0 0 0 0 0 0 0 0 0 0 0 0 0 0 0 0 0 0
0 0 0 0 0 0 0 0 0 0 0 0 0 0 0 0 0 0 0 0 0 0 0 0 0 0 0 0 0 0 0 0 0 0 0 0 0 0 0 0 0 0 0 0 0 0 0 0 0
0 0 0 0 0 0 0 0 0 0 0 0 0 0 0 0 0 0 0 0 0 0 0 0 0 0 0 0 0 0 0 0 0 0 0 0 0 0 0 0 0 0 0 0 0 0 0 0 0
0 0 0 0 0 0 0 0 0 0 0 0 0 0 0 0 0 0 0 0 0 0 0 0 0 0 0 0 0 0 0 0 0 0 0 0 0 0 0 0 0 0 0 0 0 0 0 0 0
0 0 0 0 0 0 0 0 0 0 0 0 0 0 0 0 0 0 0 0 0 0 0 0 0 0 0 0 0 0 0 0 0 0 0 0 0 0 0 0 0 0 0 0 0 0 0 0 0
0 0 0 0 0 0 0 0 0 0 0 0 0 0 0 0 0 0 0 0 0 0 0 0 0 0 0 0 0 0 0 0 0 0 0 0 0 0 0 0 0 0 0 0 0 0 0 0 0
0 0 0 0 0 0 0 0 0 0 0 0 0 0 0 0 0 0 0 0 0 0 0 0 0 0 0 0 0 0 0 0 0 0 0 0 0 0 0 0 0 0 0 0 0 0 0 0 0
0 0 0 0 0 0 0 0 0 0 0 0 0 0 0 0 0 0 0 0 0 0 0 0 0 0 0 0 0 0 0 0 0 0 0 0 0 0 0 0 0 0 0 0 0 0 0 0 0
0 0 0 0 0 0 0 0 0 0 0 0 0 0 0 0 0 0 0 0 0 0 0 0 0 0 0 0 0 0 0 0 0 0 0 0 0 0 0 0 0 0 0 0 0 0 0 0 0
0 0 0 0 0 0 0 0 0 0 0 0 0 0 0 0 0 0 0 0 0 0 0 0 0 0 0 0 0 0 0 0 0 0 0 0 0 0 0 0 0 0 0 0 0 0 0 0 0
0 0 0 0 0 0 0 0 0 0 0 0 0 0 0 0 0 0 0 0 0 0 0 0 0 0 0 0 0 0 0 0 0 0 0 0 0 0 0 0 0 0 0 0 0 0 0 0 0
0 0 0 0 0 0 0 0 0 0 0 0 0 0 0 0 0 0 0 0 0 0 0 0 0 0 0 0 0 0 0 0 0 0 0 0 0 0 0 0 0 0 0 0 0 0 0 0 0
Wind_Speed_500mb
8 7 2 4 8 3 9 9 1 13 16 8 24 8 5 5 4 6 18 44 44 39 33 29 23 20 19 21 21 25 27 19 15 19 23 26 29 32 42 36 23 29 35 32 30 28 26 26 25
11 8 4 2 6 8 11 10 16 14 15 19 16 9 5 5 2 5 29 41 47 39 32 31 26 22 21 22 21 23 24 19 16 19 23 29 29 30 34 33 28 31 34 33 31 30 29 27 24
11 12 6 4 2 8 8 16 18 12 18 15 14 5 1 3 4 21 31 44 46 39 32 30 27 22 21 21 21 22 21 20 16 17 21 26 26 25 27 33 30 27 34 34 33 31 30 29 29
12 6 5 8 8 4 3 18 17 25 8 8 9 9 4 9 13 19 40 46 43 36 34 31 26 23 20 20 20 20 20 20 18 15 20 24 24 26 27 28 31 30 31 32 30 31 31 31 31
16 4 6 4 7 4 3 14 26 24 16 13 10 9 8 10 18 21 41 49 41 36 37 32 27 23 21 20 19 18 18 19 21 16 16 19 20 23 22 27 24 22 23 27 27 26 29 30 31
7 3 7 13 8 5 6 17 20 14 10 10 8 10 7 18 22 29 40 44 39 37 38 33 28 24 21 20 17 16 15 16 19 18 13 11 18 17 19 17 13 20 23 26 25 26 23 29 27
5 5 5 10 13 9 11 22 18 14 11 11 3 9 7 23 28 33 41 41 40 37 38 36 32 28 24 21 18 16 15 16 18 17 13 9 16 17 14 12 11 15 18 20 20 21 19 22 21
7 5 10 7 15 8 17 20 8 14 9 7 12 7 7 27 36 42 41 41 40 40 38 37 35 32 29 26 22 19 16 15 16 17 13 8 6 10 11 8 11 13 15 18 18 17 15 16 15
10 6 10 13 13 12 18 15 11 11 7 12 15 5 9 34 41 44 46 46 45 45 42 40 38 35 32 29 25 22 20 17 17 16 14 10 2 2 5 6 9 11 13 17 16 15 14 12 9
7 7 15 12 11 11 23 17 19 12 12 13 11 19 15 40 42 46 53 57 54 51 49 45 42 38 36 33 30 26 23 20 19 17 15 13 9 5 3 2 5 7 10 14 14 13 11 9 5
6 11 10 12 10 10 20 12 14 14 12 22 26 26 25 39 43 44 47 55 56 52 50 49 46 43 40 38 35 32 29 26 23 21 19 16 13 9 6 5 7 8 7 11 14 13 10 8 6
10 1 6 14 12 13 21 15 12 20 5 10 23 18 31 35 43 44 44 46 53 54 50 48 48 48 45 42 39 36 33 31 28 24 22 19 16 14 12 10 11 11 12 13 14 12 9 7 5
5 12 6 10 16 9 17 9 6 20 22 18 12 20 30 36 40 41 39 41 44 50 49 48 48 50 48 47 44 42 39 35 32 28 25 22 20 17 16 15 15 15 15 15 15 12 9 5 4
9 9 10 9 10 5 7 6 5 8 22 31 33 29 28 37 40 39 43 43 45 43 44 43 46 47 48 48 49 47 44 41 38 35 31 28 25 21 20 19 17 16 16 17 17 15 11 9 8
18 11 5 4 5 5 4 11 15 21 21 18 21 31 35 36 41 48 43 44 44 44 44 45 44 44 48 44 43 45 43 45 45 42 38 35 31 26 24 23 21 19 19 20 20 19 16 14 13
10 5 13 5 5 2 9 28 4 16 16 28 21 21 35 37 40 43 46 45 46 49 50 49 49 50 50 49 45 43 39 37 37 41 43 43 38 34 30 29 26 23 21 21 23 24 22 22 23
1 12 13 5 5 4 12 14 5 8 4 10 22 29 32 38 44 45 46 49 49 52 54 55 56 56 56 55 53 49 46 41 39 40 38 36 39 40 35 32 30 25 27 28 29 29 29 29 31
14 10 5 10 10 7 9 27 16 14 17 22 18 19 29 32 34 33 34 42 49 53 57 59 64 62 62 62 63 61 59 52 48 44 44 40 38 35 41 35 34 35 36 36 35 39 37 36 38
12 9 12 5 4 8 18 26 29 28 24 32 34 30 32 35 30 39 37 41 43 49 57 65 68 68 72 74 74 73 71 62 59 54 49 49 47 45 43 43 45 45 47 48 48 48 47 50 49
12 13 9 4 3 7 5 25 29 27 25 34 37 37 39 37 41 41 38 44 52 58 62 66 71 73 75 77 76 75 70 69 62 56 54 55 53 53 51 50 48 54 54 58 59 59 63 63 61
9 15 8 1 4 3 10 20 18 8 21 27 46 35 36 42 50 45 46 47 45 50 60 71 73 74 75 77 74 74 69 71 70 70 66 62 57 58 59 60 59 61 65 67 68 71 69 73 71
15 12 9 12 7 10 5 12 9 8 18 18 17 15 15 22 29 31 33 37 43 44 44 49 59 66 73 71 74 76 75 71 73 70 64 60 58 62 56 57 62 65 71 77 81 81 80 82 81
6 10 10 5 7 3 9 11 7 5 16 20 13 15 13 13 12 13 17 21 25 33 40 43 48 50 56 69 70 72 72 70 61 58 58 60 54 55 50 53 49 56 54 63 61 66 84 87 93
23 17 12 6 3 13 18 15 11 13 19 6 12 12 13 15 14 12 12 13 13 14 17 21 27 37 44 57 60 61 68 65 67 62 57 53 52 48 41 38 44 46 52 58 55 55 67 84 92
7 25 6 7 9 12 2 8 22 12 12 6 20 9 15 19 19 16 14 15 14 14 14 15 20 27 34 46 52 56 58 53 59 61 57 55 51 49 41 40 42 49 52 54 62 61 62 63 75
16 17 9 14 10 4 4 16 11 2 5 18 13 14 17 19 20 18 15 13 13 12 12 14 17 23 31 39 42 43 45 50 50 51 53 50 48 44 42 43 47 49 49 55 64 64 62 58 65
13 15 3 13 2 2 10 13 20 17 17 12 15 19 19 21 21 19 17 15 14 13 13 13 13 15 18 24 32 38 40 42 46 47 45 44 44 43 41 47 51 47 50 46 49 53 59 60 62
12 21 7 5 10 12 14 13 22 11 23 19 21 26 24 26 25 25 23 21 19 17 17 16 16 16 18 18 21 24 28 31 32 35 36 38 41 43 46 48 52 53 54 53 55 59 60 62 64
11 12 4 6 7 9 10 17 10 28 29 35 31 29 29 31 33 31 30 29 27 25 24 21 20 19 19 19 18 18 19 21 23 26 29 31 33 33 33 33 34 39 44 46 51 56 59 63 66
14 25 31 14 20 13 8 23 2 9 23 43 40 32 31 32 34 36 35 33 32 31 30 28 27 26 25 22 20 19 18 17 16 14 14 14 15 18 21 25 29 34 39 42 46 51 54 59 65
Wind_Direction_500mb
230 230 254 314 227 244 135 152 91 143 159 129 145 169 207 326 299 30 156 167 166 162 162 158 146 137 133 122 117 115 113 115 98 81 77 91 98 96 98 100 101 92 95 98 104 104 106 107 109
204 192 184 187 238 195 151 150 174 147 139 140 140 141 201 99 106 146 154 164 166 169 163 158 149 145 136 127 121 118 125 121 99 80 80 91 99 96 101 106 93 89 93 95 99 103 106 108 111
192 171 192 217 228 200 164 178 156 137 144 164 144 187 162 119 147 152 168 165 167 175 169 161 152 148 139 132 125 121 124 125 108 92 84 93 95 91 90 105 97 93 91 87 94 97 100 102 104
168 138 88 240 187 98 52 158 153 149 170 164 140 155 145 167 142 165 168 167 167 173 172 165 158 151 145 138 128 124 120 125 123 106 95 98 92 91 91 104 95 90 97 94 89 96 97 103 101
161 158 174 186 153 134 164 161 166 167 149 160 178 134 144 176 167 162 168 169 169 170 170 167 164 159 154 146 135 127 121 123 133 125 105 102 98 95 96 104 111 113 108 103 107 105 97 101 98
129 171 186 184 156 144 143 165 168 181 152 145 186 154 147 176 170 167 168 171 173 173 172 172 168 167 163 157 144 134 124 123 133 138 123 100 91 93 98 112 113 105 104 109 112 110 95 103 100
191 196 157 157 143 158 153 161 181 176 163 182 196 186 160 171 173 173 170 174 177 181 180 179 176 175 173 168 160 151 142 136 137 144 132 112 73 75 85 105 104 103 106 108 110 113 104 102 100
165 128 149 171 174 136 153 162 174 180 179 182 176 192 173 183 170 169 170 177 183 186 190 188 184 183 181 179 175 167 161 153 150 151 150 149 89 67 59 99 117 114 118 121 121 124 112 106 101
173 184 179 166 178 144 163 175 166 177 150 182 195 182 171 176 176 177 180 183 189 193 197 196 194 191 189 189 186 181 177 171 165 166 167 175 197 48 50 100 126 126 129 132 135 128 116 106 99
188 212 185 170 175 166 174 185 161 170 178 210 211 209 180 182 186 187 189 191 194 198 199 202 202 201 198 197 196 194 190 189 184 184 186 195 209 224 258 136 151 146 149 150 138 132 122 117 110
159 215 161 181 165 160 172 183 173 178 199 218 215 204 201 188 193 200 201 203 202 204 204 206 206 207 207 206 205 205 201 202 199 198 201 206 217 222 229 211 195 180 156 146 147 147 144 144 145
154 164 175 146 167 153 166 153 187 210 182 187 215 203 216 203 204 208 210 209 210 211 212 212 213 212 213 214 214 216 213 212 211 210 211 213 220 219 217 213 204 191 174 174 169 165 164 163 158
179 154 128 138 146 141 153 174 209 240 230 233 198 218 221 222 219 215 215 217 217 216 217 217 218 219 219 219 220 222 221 221 221 220 220 220 221 222 218 212 209 202 197 187 185 185 187 194 199
132 119 132 147 142 129 178 182 220 217 238 243 242 234 231 224 224 218 217 219 220 220 220 220 220 221 224 225 225 228 228 227 228 227 226 225 226 226 223 219 217 216 212 204 200 204 209 222 234
125 117 141 148 167 130 201 237 227 243 240 255 252 232 228 229 224 225 227 224 225 226 224 224 223 220 224 225 225 229 232 230 229 232 231 230 228 229 227 225 224 223 222 218 218 221 226 233 240
120 156 181 132 189 170 206 249 214 243 236 242 242 234 230 228 229 227 226 228 228 230 230 229 228 227 229 229 228 229 232 230 234 233 234 234 232 230 231 228 229 231 234 235 235 236 238 242 241
52 193 197 164 211 170 215 267 169 218 209 250 231 241 241 240 234 234 231 232 229 232 234 234 235 234 234 234 235 236 236 234 235 235 239 237 236 235 237 236 237 242 249 248 248 248 252 257 259
172 171 200 199 176 201 206 253 245 228 275 267 252 237 239 238 233 237 235 236 235 236 236 236 238 237 237 238 238 239 239 236 236 237 238 240 235 228 235 240 242 244 249 255 258 254 257 263 269
154 166 182 155 116 214 234 255 262 267 272 258 252 241 242 244 250 249 245 240 238 236 236 236 235 236 235 235 236 239 241 240 238 236 238 238 237 233 231 236 242 243 245 249 250 253 256 258 255
155 166 182 115 94 232 281 274 272 255 251 246 251 243 244 252 255 259 253 249 246 244 240 237 236 235 236 237 238 241 244 247 247 245 243 239 239 240 239 244 249 249 251 251 250 250 251 248 249
193 192 172 135 128 80 306 270 254 244 246 250 249 254 253 256 260 260 258 252 244 240 237 233 236 237 235 236 237 236 243 247 248 244 243 242 243 242 244 246 248 252 254 257 256 254 255 255 253
211 202 154 143 177 252 342 281 266 254 273 245 246 247 238 241 248 250 245 244 239 233 227 229 232 234 234 231 230 229 232 230 240 250 249 243 248 246 251 249 254 258 259 260 258 255 258 252 255
202 140 132 117 157 289 195 261 251 345 266 252 197 166 174 190 191 210 218 227 231 232 235 238 238 235 233 227 228 231 232 234 234 244 252 249 249 250 257 250 258 264 266 266 271 273 273 263 254
142 101 66 68 124 246 214 225 228 210 228 175 155 163 184 179 164 149 140 143 165 186 208 221 220 223 224 220 223 226 233 232 229 236 244 249 251 249 252 247 260 265 269 263 272 274 276 276 270
187 158 142 197 201 249 76 202 256 226 218 225 176 192 192 178 171 162 146 137 133 144 162 185 200 209 212 215 219 222 227 226 230 233 240 247 251 252 252 255 261 265 270 274 274 278 282 284 280
190 194 179 196 197 214 101 230 249 220 297 228 230 193 182 176 171 168 162 151 143 145 152 163 181 194 203 209 214 218 220 223 227 234 238 243 247 255 256 257 264 265 270 276 281 274 277 285 282
181 216 137 102 49 257 211 257 271 225 234 194 181 169 169 171 167 162 156 154 152 156 165 171 175 184 191 201 207 210 211 215 221 228 233 235 240 244 247 254 257 262 263 270 271 277 276 280 279
200 137 166 225 201 232 228 264 244 204 214 188 184 182 170 168 163 158 154 151 151 153 157 159 163 169 173 180 190 198 202 206 211 216 222 228 234 238 242 248 255 260 261 263 265 267 270 272 274
162 183 199 217 213 236 260 252 215 223 198 188 181 175 170 168 163 157 150 144 141 137 132 135 140 146 149 154 165 174 185 195 204 212 220 229 235 242 246 250 256 261 263 266 267 269 272 274 276
236 213 189 195 211 228 274 259 130 272 187 174 170 173 169 167 158 152 148 144 139 137 132 131 130 134 131 134 138 144 149 156 166 178 194 212 233 243 252 259 265 266 266 266 267 268 270 272 274
Wind_Speed_850mb
8 7 2 4 8 3 9 9 1 13 16 8 24 8 5 5 4 6 18 44 44 39 33 29 23 20 19 21 21 25 27 19 15 19 23 26 29 32 42 36 23 29 35 32 30 28 26 26 25
11 8 4 2 6 8 11 10 16 14 15 19 16 9 5 5 2 5 29 41 47 39 32 31 26 22 21 22 21 23 24 19 16 19 23 29 29 30 34 33 28 31 34 33 31 30 29 27 24
11 12 6 4 2 8 8 16 18 12 18 15 14 5 1 3 4 21 31 44 46 39 32 30 27 22 21 21 21 22 21 20 16 17 21 26 26 25 27 33 30 27 34 34 33 31 30 29 29
12 6 5 8 8 4 3 18 17 25 8 8 9 9 4 9 13 19 40 46 43 36 34 31 26 23 20 20 20 20 20 20 18 15 20 24 24 26 27 28 31 30 31 32 30 31 31 31 31
16 4 6 4 7 4 3 14 26 24 16 13 10 9 8 10 18 21 41 49 41 36 37 32 27 23 21 20 19 18 18 19 21 16 16 19 20 23 22 27 24 22 23 27 27 26 29 30 31
7 3 7 13 8 5 6 17 20 14 10 10 8 10 7 18 22 29 40 44 39 37 38 33 28 24 21 20 17 16 15 16 19 18 13 11 18 17 19 17 13 20 23 26 25 26 23 29 27
5 5 5 10 13 9 11 22 18 14 11 11 3 9 7 23 28 33 41 41 40 37 38 36 32 28 24 21 18 16 15 16 18 17 13 9 16 17 14 12 11 15 18 20 20 21 19 22 21
7 5 10 7 15 8 17 20 8 14 9 7 12 7 7 27 36 42 41 41 40 40 38 37 35 32 29 26 22 19 16 15 16 17 13 8 6 10 11 8 11 13 15 18 18 17 15 16 15
10 6 10 13 13 12 18 15 11 11 7 12 15 5 9 34 41 44 46 46 45 45 42 40 38 35 32 29 25 22 20 17 17 16 14 10 2 2 5 6 9 11 13 17 16 15 14 12 9
7 7 15 12 11 11 23 17 19 12 12 13 11 19 15 40 42 46 53 57 54 51 49 45 42 38 36 33 30 26 23 20 19 17 15 13 9 5 3 2 5 7 10 14 14 13 11 9 5
6 11 10 12 10 10 20 12 14 14 12 22 26 26 25 39 43 44 47 55 56 52 50 49 46 43 40 38 35 32 29 26 23 21 19 16 13 9 6 5 7 8 7 11 14 13 10 8 6
10 1 6 14 12 13 21 15 12 20 5 10 23 18 31 35 43 44 44 46 53 54 50 48 48 48 45 42 39 36 33 31 28 24 22 19 16 14 12 10 11 11 12 13 14 12 9 7 5
5 12 6 10 16 9 17 9 6 20 22 18 12 20 30 36 40 41 39 41 44 50 49 48 48 50 48 47 44 42 39 35 32 28 25 22 20 17 16 15 15 15 15 15 15 12 9 5 4
9 9 10 9 10 5 7 6 5 8 22 31 33 29 28 37 40 39 43 43 45 43 44 43 46 47 48 48 49 47 44 41 38 35 31 28 25 21 20 19 17 16 16 17 17 15 11 9 8
18 11 5 4 5 5 4 11 15 21 21 18 21 31 35 36 41 48 43 44 44 44 44 45 44 44 48 44 43 45 43 45 45 42 38 35 31 26 24 23 21 19 19 20 20 19 16 14 13
10 5 13 5 5 2 9 28 4 16 16 28 21 21 35 37 40 43 46 45 46 49 50 49 49 50 50 49 45 43 39 37 37 41 43 43 38 34 30 29 26 23 21 21 23 24 22 22 23
1 12 13 5 5 4 12 14 5 8 4 10 22 29 32 38 44 45 46 49 49 52 54 55 56 56 56 55 53 49 46 41 39 40 38 36 39 40 35 32 30 25 27 28 29 29 29 29 31
14 10 5 10 10 7 9 27 16 14 17 22 18 19 29 32 34 33 34 42 49 53 57 59 64 62 62 62 63 61 59 52 48 44 44 40 38 35 41 35 34 35 36 36 35 39 37 36 38
12 9 12 5 4 8 18 26 29 28 24 32 34 30 32 35 30 39 37 41 43 49 57 65 68 68 72 74 74 73 71 62 59 54 49 49 47 45 43 43 45 45 47 48 48 48 47 50 49
12 13 9 4 3 7 5 25 29 27 25 34 37 37 39 37 41 41 38 44 52 58 62 66 71 73 75 77 76 75 70 69 62 56 54 55 53 53 51 50 48 54 54 58 59 59 63 63 61
9 15 8 1 4 3 10 20 18 8 21 27 46 35 36 42 50 45 46 47 45 50 60 71 73 74 75 77 74 74 69 71 70 70 66 62 57 58 59 60 59 61 65 67 68 71 69 73 71
15 12 9 12 7 10 5 12 9 8 18 18 17 15 15 22 29 31 33 37 43 44 44 49 59 66 73 71 74 76 75 71 73 70 64 60 58 62 56 57 62 65 71 77 81 81 80 82 81
6 10 10 5 7 3 9 11 7 5 16 20 13 15 13 13 12 13 17 21 25 33 40 43 48 50 56 69 70 72 72 70 61 58 58 60 54 55 50 53 49 56 54 63 61 66 84 87 93
23 17 12 6 3 13 18 15 11 13 19 6 12 12 13 15 14 12 12 13 13 14 17 21 27 37 44 57 60 61 68 65 67 62 57 53 52 48 41 38 44 46 52 58 55 55 67 84 92
7 25 6 7 9 12 2 8 22 12 12 6 20 9 15 19 19 16 14 15 14 14 14 15 20 27 34 46 52 56 58 53 59 61 57 55 51 49 41 40 42 49 52 54 62 61 62 63 75
16 17 9 14 10 4 4 16 11 2 5 18 13 14 17 19 20 18 15 13 13 12 12 14 17 23 31 39 42 43 45 50 50 51 53 50 48 44 42 43 47 49 49 55 64 64 62 58 65
13 15 3 13 2 2 10 13 20 17 17 12 15 19 19 21 21 19 17 15 14 13 13 13 13 15 18 24 32 38 40 42 46 47 45 44 44 43 41 47 51 47 50 46 49 53 59 60 62
12 21 7 5 10 12 14 13 22 11 23 19 21 26 24 26 25 25 23 21 19 17 17 16 16 16 18 18 21 24 28 31 32 35 36 38 41 43 46 48 52 53 54 53 55 59 60 62 64
11 12 4 6 7 9 10 17 10 28 29 35 31 29 29 31 33 31 30 29 27 25 24 21 20 19 19 19 18 18 19 21 23 26 29 31 33 33 33 33 34 39 44 46 51 56 59 63 66
14 25 31 14 20 13 8 23 2 9 23 43 40 32 31 32 34 36 35 33 32 31 30 28 27 26 25 22 20 19 18 17 16 14 14 14 15 18 21 25 29 34 39 42 46 51 54 59 65
Wind_Direction_850mb
230 230 254 314 227 244 135 152 91 143 159 129 145 169 207 326 299 30 156 167 166 162 162 158 146 137 133 122 117 115 113 115 98 81 77 91 98 96 98 100 101 92 95 98 104 104 106 107 109
204 192 184 187 238 195 151 150 174 147 139 140 140 141 201 99 106 146 154 164 166 169 163 158 149 145 136 127 121 118 125 121 99 80 80 91 99 96 101 106 93 89 93 95 99 103 106 108 111
192 171 192 217 228 200 164 178 156 137 144 164 144 187 162 119 147 152 168 165 167 175 169 161 152 148 139 132 125 121 124 125 108 92 84 93 95 91 90 105 97 93 91 87 94 97 100 102 104
168 138 88 240 187 98 52 158 153 149 170 164 140 155 145 167 142 165 168 167 167 173 172 165 158 151 145 138 128 124 120 125 123 106 95 98 92 91 91 104 95 90 97 94 89 96 97 103 101
161 158 174 186 153 134 164 161 166 167 149 160 178 134 144 176 167 162 168 169 169 170 170 167 164 159 154 146 135 127 121 123 133 125 105 102 98 95 96 104 111 113 108 103 107 105 97 101 98
129 171 186 184 156 144 143 165 168 181 152 145 186 154 147 176 170 167 168 171 173 173 172 172 168 167 163 157 144 134 124 123 133 138 123 100 91 93 98 112 113 105 104 109 112 110 95 103 100
191 196 157 157 143 158 153 161 181 176 163 182 196 186 160 171 173 173 170 174 177 181 180 179 176 175 173 168 160 151 142 136 137 144 132 112 73 75 85 105 104 103 106 108 110 113 104 102 100
165 128 149 171 174 136 153 162 174 180 179 182 176 192 173 183 170 169 170 177 183 186 190 188 184 183 181 179 175 167 161 153 150 151 150 149 89 67 59 99 117 114 118 121 121 124 112 106 101
173 184 179 166 178 144 163 175 166 177 150 182 195 182 171 176 176 177 180 183 189 193 197 196 194 191 189 189 186 181 177 171 165 166 167 175 197 48 50 100 126 126 129 132 135 128 116 106 99
188 212 185 170 175 166 174 185 161 170 178 210 211 209 180 182 186 187 189 191 194 198 199 202 202 201 198 197 196 194 190 189 184 184 186 195 209 224 258 136 151 146 149 150 138 132 122 117 110
159 215 161 181 165 160 172 183 173 178 199 218 215 204 201 188 193 200 201 203 202 204 204 206 206 207 207 206 205 205 201 202 199 198 201 206 217 222 229 211 195 180 156 146 147 147 144 144 145
154 164 175 146 167 153 166 153 187 210 182 187 215 203 216 203 204 208 210 209 210 211 212 212 213 212 213 214 214 216 213 212 211 210 211 213 220 219 217 213 204 191 174 174 169 165 164 163 158
179 154 128 138 146 141 153 174 209 240 230 233 198 218 221 222 219 215 215 217 217 216 217 217 218 219 219 219 220 222 221 221 221 220 220 220 221 222 218 212 209 202 197 187 185 185 187 194 199
132 119 132 147 142 129 178 182 220 217 238 243 242 234 231 224 224 218 217 219 220 220 220 220 220 221 224 225 225 228 228 227 228 227 226 225 226 226 223 219 217 216 212 204 200 204 209 222 234
125 117 141 148 167 130 201 237 227 243 240 255 252 232 228 229 224 225 227 224 225 226 224 224 223 220 224 225 225 229 232 230 229 232 231 230 228 229 227 225 224 223 222 218 218 221 226 233 240
120 156 181 132 189 170 206 249 214 243 236 242 242 234 230 228 229 227 226 228 228 230 230 229 228 227 229 229 228 229 232 230 234 233 234 234 232 230 231 228 229 231 234 235 235 236 238 242 241
52 193 197 164 211 170 215 267 169 218 209 250 231 241 241 240 234 234 231 232 229 232 234 234 235 234 234 234 235 236 236 234 235 235 239 237 236 235 237 236 237 242 249 248 248 248 252 257 259
172 171 200 199 176 201 206 253 245 228 275 267 252 237 239 238 233 237 235 236 235 236 236 236 238 237 237 238 238 239 239 236 236 237 238 240 235 228 235 240 242 244 249 255 258 254 257 263 269
154 166 182 155 116 214 234 255 262 267 272 258 252 241 242 244 250 249 245 240 238 236 236 236 235 236 235 235 236 239 241 240 238 236 238 238 237 233 231 236 242 243 245 249 250 253 256 258 255
155 166 182 115 94 232 281 274 272 255 251 246 251 243 244 252 255 259 253 249 246 244 240 237 236 235 236 237 238 241 244 247 247 245 243 239 239 240 239 244 249 249 251 251 250 250 251 248 249
193 192 172 135 128 80 306 270 254 244 246 250 249 254 253 256 260 260 258 252 244 240 237 233 236 237 235 236 237 236 243 247 248 244 243 242 243 242 244 246 248 252 254 257 256 254 255 255 253
211 202 154 143 177 252 342 281 266 254 273 245 246 247 238 241 248 250 245 244 239 233 227 229 232 234 234 231 230 229 232 230 240 250 249 243 248 246 251 249 254 258 259 260 258 255 258 252 255
202 140 132 117 157 289 195 261 251 345 266 252 197 166 174 190 191 210 218 227 231 232 235 238 238 235 233 227 228 231 232 234 234 244 252 249 249 250 257 250 258 264 266 266 271 273 273 263 254
142 101 66 68 124 246 214 225 228 210 228 175 155 163 184 179 164 149 140 143 165 186 208 221 220 223 224 220 223 226 233 232 229 236 244 249 251 249 252 247 260 265 269 263 272 274 276 276 270
187 158 142 197 201 249 76 202 256 226 218 225 176 192 192 178 171 162 146 137 133 144 162 185 200 209 212 215 219 222 227 226 230 233 240 247 251 252 252 255 261 265 270 274 274 278 282 284 280
190 194 179 196 197 214 101 230 249 220 297 228 230 193 182 176 171 168 162 151 143 145 152 163 181 194 203 209 214 218 220 223 227 234 238 243 247 255 256 257 264 265 270 276 281 274 277 285 282
181 216 137 102 49 257 211 257 271 225 234 194 181 169 169 171 167 162 156 154 152 156 165 171 175 184 191 201 207 210 211 215 221 228 233 235 240 244 247 254 257 262 263 270 271 277 276 280 279
200 137 166 225 201 232 228 264 244 204 214 188 184 182 170 168 163 158 154 151 151 153 157 159 163 169 173 180 190 198 202 206 211 216 222 228 234 238 242 248 255 260 261 263 265 267 270 272 274
162 183 199 217 213 236 260 252 215 223 198 188 181 175 170 168 163 157 150 144 141 137 132 135 140 146 149 154 165 174 185 195 204 212 220 229 235 242 246 250 256 261 263 266 267 269 272 274 276
236 213 189 195 211 228 274 259 130 272 187 174 170 173 169 167 158 152 148 144 139 137 132 131 130 134 131 134 138 144 149 156 166 178 194 212 233 243 252 259 265 266 266 266 267 268 270 272 274